TimeAEST,TemperatureF,Dew PointF,Humidity,Sea Level PressureIn,VisibilityMPH,Wind Direction,Wind SpeedMPH,Gust SpeedMPH,PrecipitationIn,Events,Conditions,WindDirDegrees,DateUTC
12:00 AM,72,56,47,30.05,,ESE,17.3,,,,,110,2012-10-17 14:00:00
12:00 AM,71.6,55.4,57,30.04,-9999.0,ESE,17.3,-,N/A,,Unknown,110,2012-10-17 14:00:00
12:30 AM,71.6,57.2,60,30.04,-9999.0,ESE,17.3,-,N/A,,Unknown,110,2012-10-17 14:30:00
1:00 AM,71.6,57.2,60,30.04,-9999.0,ESE,17.3,-,N/A,,Unknown,120,2012-10-17 15:00:00
1:30 AM,71.6,57.2,60,30.01,-9999.0,ESE,16.1,-,N/A,,Unknown,120,2012-10-17 15:30:00
2:00 AM,71.6,55.4,57,30.01,-9999.0,ESE,16.1,-,N/A,,Unknown,120,2012-10-17 16:00:00
2:30 AM,71.6,55.4,57,30.01,-9999.0,ESE,16.1,-,N/A,,Unknown,110,2012-10-17 16:30:00
3:00 AM,72,55,44,30.02,,ESE,15.0,,,,,120,2012-10-17 17:00:00
3:00 AM,71.6,55.4,57,30.01,-9999.0,ESE,15.0,-,N/A,,Unknown,120,2012-10-17 17:00:00
3:30 AM,71.6,55.4,57,30.01,-9999.0,ESE,13.8,-,N/A,,Unknown,120,2012-10-17 17:30:00
4:00 AM,71.6,55.4,57,30.01,-9999.0,ESE,13.8,-,N/A,,Unknown,120,2012-10-17 18:00:00
4:30 AM,71.6,55.4,57,30.01,-9999.0,ESE,12.7,-,N/A,,Unknown,120,2012-10-17 18:30:00
5:00 AM,71.6,57.2,60,30.01,-9999.0,ESE,13.8,-,N/A,,Unknown,120,2012-10-17 19:00:00
5:30 AM,71.6,57.2,60,30.04,-9999.0,ESE,13.8,-,N/A,,Unknown,120,2012-10-17 19:30:00
6:00 AM,72,57,49,30.03,,SE,15.0,,,,,140,2012-10-17 20:00:00
6:00 AM,71.6,57.2,60,30.04,-9999.0,SE,15.0,-,N/A,,Unknown,130,2012-10-17 20:00:00
6:30 AM,73.4,59.0,61,30.04,-9999.0,SE,17.3,-,N/A,,Unknown,130,2012-10-17 20:30:00
7:00 AM,73.4,57.2,57,30.04,-9999.0,SE,16.1,-,N/A,,Unknown,130,2012-10-17 21:00:00
7:30 AM,77.0,57.2,50,30.06,-9999.0,SE,15.0,-,N/A,,Unknown,140,2012-10-17 21:30:00
8:00 AM,75.2,57.2,53,30.06,-9999.0,SE,15.0,-,N/A,,Unknown,130,2012-10-17 22:00:00
8:30 AM,75.2,60.8,61,30.06,-9999.0,SSE,17.3,-,N/A,,Unknown,150,2012-10-17 22:30:00
9:00 AM,78,60,43,30.07,,SE,19.6,,,,,140,2012-10-17 23:00:00
9:00 AM,78.8,59.0,51,30.06,-9999.0,SE,19.6,-,N/A,,Unknown,140,2012-10-17 23:00:00
9:30 AM,77.0,57.2,50,30.06,-9999.0,SE,19.6,-,N/A,,Unknown,140,2012-10-17 23:30:00
10:00 AM,77.0,55.4,47,30.06,-9999.0,SE,19.6,-,N/A,,Unknown,140,2012-10-18 00:00:00
10:30 AM,75.2,53.6,47,30.06,-9999.0,SSE,17.3,-,N/A,,Unknown,150,2012-10-18 00:30:00
11:00 AM,77.0,57.2,50,30.06,-9999.0,SSE,19.6,-,N/A,,Unknown,150,2012-10-18 01:00:00
11:30 AM,77.0,55.4,47,30.04,-9999.0,SE,20.7,-,N/A,,Unknown,140,2012-10-18 01:30:00
12:00 PM,78,58,39,30.05,,SE,19.6,,,,,140,2012-10-18 02:00:00
12:00 PM,77.0,57.2,50,30.04,-9999.0,SE,19.6,-,N/A,,Unknown,140,2012-10-18 02:00:00
12:30 PM,77.0,57.2,50,30.04,-9999.0,SSE,19.6,-,N/A,,Unknown,150,2012-10-18 02:30:00
1:00 PM,77.0,57.2,50,30.04,-9999.0,SSE,19.6,-,N/A,,Unknown,150,2012-10-18 03:00:00
1:30 PM,78.8,55.4,44,30.01,-9999.0,SE,18.4,-,N/A,,Unknown,130,2012-10-18 03:30:00
2:00 PM,77.0,55.4,47,30.01,-9999.0,SE,18.4,-,N/A,,Unknown,130,2012-10-18 04:00:00
2:30 PM,77.0,53.6,44,30.01,-9999.0,ESE,19.6,-,N/A,,Unknown,120,2012-10-18 04:30:00
3:00 PM,76,55,38,30.00,,ESE,18.4,,,,,120,2012-10-18 05:00:00
3:00 PM,77.0,55.4,47,30.01,-9999.0,ESE,18.4,-,N/A,,Unknown,120,2012-10-18 05:00:00
3:30 PM,77.0,53.6,44,30.01,-9999.0,ESE,18.4,-,N/A,,Unknown,110,2012-10-18 05:30:00
4:00 PM,75.2,51.8,44,30.01,-9999.0,East,19.6,-,N/A,,Unknown,100,2012-10-18 06:00:00
4:30 PM,75.2,55.4,50,30.01,-9999.0,ESE,19.6,-,N/A,,Unknown,120,2012-10-18 06:30:00
5:00 PM,75.2,55.4,50,30.01,-9999.0,ESE,18.4,-,N/A,,Unknown,120,2012-10-18 07:00:00
5:30 PM,73.4,55.4,53,30.01,-9999.0,ESE,19.6,-,N/A,,Unknown,120,2012-10-18 07:30:00
6:00 PM,73,57,46,30.03,,ESE,19.6,,,,,120,2012-10-18 08:00:00
6:00 PM,73.4,57.2,57,30.04,-9999.0,ESE,19.6,-,N/A,,Unknown,120,2012-10-18 08:00:00
6:30 PM,73.4,55.4,53,30.04,-9999.0,ESE,18.4,-,N/A,,Unknown,110,2012-10-18 08:30:00
7:00 PM,73.4,57.2,57,30.04,-9999.0,ESE,18.4,-,N/A,,Unknown,120,2012-10-18 09:00:00
7:30 PM,73.4,57.2,57,30.06,-9999.0,ESE,18.4,-,N/A,,Unknown,120,2012-10-18 09:30:00
8:00 PM,73.4,57.2,57,30.06,-9999.0,ESE,17.3,-,N/A,,Unknown,110,2012-10-18 10:00:00
8:30 PM,73.4,57.2,57,30.06,-9999.0,ESE,17.3,-,N/A,,Unknown,120,2012-10-18 10:30:00
9:00 PM,73,56,46,30.09,,ESE,18.4,,,,,120,2012-10-18 11:00:00
9:00 PM,73.4,57.2,57,30.06,-9999.0,ESE,18.4,-,N/A,,Unknown,120,2012-10-18 11:00:00
9:30 PM,73.4,57.2,57,30.09,-9999.0,ESE,17.3,-,N/A,,Unknown,110,2012-10-18 11:30:00
10:00 PM,73.4,57.2,57,30.09,-9999.0,ESE,19.6,-,N/A,,Unknown,110,2012-10-18 12:00:00
10:30 PM,73.4,57.2,57,30.09,-9999.0,ESE,18.4,-,N/A,,Unknown,110,2012-10-18 12:30:00
11:00 PM,73.4,55.4,53,30.06,-9999.0,ESE,19.6,-,N/A,,Unknown,110,2012-10-18 13:00:00
11:30 PM,73.4,57.2,57,30.06,-9999.0,East,18.4,-,N/A,,Unknown,100,2012-10-18 13:30:00